Regional Weather Roundup
Issued by NWS Green Bay, WI

Home | Current Version | Previous Version | Text Only | Print | Product List | Glossary On
Versions: 1 2 3 4 5 6 7 8 9 10 11 12 13 14 15 16 17 18 19 20 21 22 23 24 25 26 27 28 29 30 31 32 33 34 35 36 37 38 39 40 41 42 43 44 45 46 47 48 49 50
000
ASUS43 KGRB 060900
RWRGRB

NORTH-CENTRAL AND NORTHEAST WISCONSIN REGIONAL WEATHER ROUNDUP
NATIONAL WEATHER SERVICE GREEN BAY WI
400 AM CDT MON JUL 06 2015

WIZ005-009-010>012-018-019-061000-
NORTH CENTRAL WISCONSIN

CITY           SKY/WX    TMP DP  RH WIND       PRES   REMARKS
IRONWOOD       CLOUDY    68  66  94 NW8       29.79R
MANITOWISH WTR NOT AVBL
ARBOR VITAE    NOT AVBL
EAGLE RIVER    NOT AVBL
LAND O LAKES   NOT AVBL
RHINELANDER    CLOUDY    69  63  81 SW10      29.91S
PHILLIPS       RAIN      67  66  96 CALM      29.89S
ANTIGO         NOT AVBL
TOMAHAWK       NOT AVBL
MERRILL        NOT AVBL
$$

WIZ013-073-061000-
NORTHEAST WISCONSIN

CITY           SKY/WX    TMP DP  RH WIND       PRES   REMARKS
IRON MOUNTAIN  CLOUDY    65  62  90 SE3       29.89S
MARINETTE      MOCLDY    70  61  73 S8        29.89F
$$

WIZ017-030-035>037-045-061000-
CENTRAL WISCONSIN

CITY           SKY/WX    TMP DP  RH WIND       PRES   REMARKS
MEDFORD        NOT AVBL
WAUSAU         CLOUDY    67  63  87 SE3       29.90R
MOSINEE        NOT AVBL
MARSHFIELD     CLOUDY    68  62  81 S8        29.90R
WISC RAPIDS    CLOUDY    68  63  84 S5        29.91R
STEVENS POINT  NOT AVBL
WAUPACA        NOT AVBL
SHAWANO        NOT AVBL
CLINTONVILLE   CLOUDY    66  63  88 S5        29.90F
$$

WIZ038-039-048-051-061000-
FOX VALLEY

CITY           SKY/WX    TMP DP  RH WIND       PRES   REMARKS
NWS GREEN BAY  MOCLDY    66  62  87 S9        29.91F FOG
APPLETON       NOT AVBL
OSHKOSH        MOCLDY    66  62  87 S10       29.92F
FOND DU LAC    PTCLDY    67  63  87 SW7       29.94F
$$

WIZ022-050-052-061000-
EAST CENTRAL WISCONSIN

CITY           SKY/WX    TMP DP  RH WIND       PRES   REMARKS
STURGEON BAY   PTCLDY    66  59  77 S9        29.94F
MANITOWOC      NOT AVBL
SHEBOYGAN      CLEAR     62  59  90 SE5       29.95F FOG
$$

LMZ563-521-522-541>543-061000-
LAKESHORE

STATION/POSITION TIME  TEMP    WIND        PRES    VSBY  WAVE
                       AIR SEA DIR/SP/G                  HT/PER
                 (UTC) (F)     (DEG/KT/KT) (MB)    (MI)  (FT/S)
SHEBOYGAN LKSHOR 0800   62     180/ 13/ 13 1015.2F
KEWAUNEE LKSHORE 0800   62     190/  7/  8 1014.2F
NORTHPORT PIER   0800   66     150/  4/  8 1013.5F
N MID LAKE BUOY  0750   57 53  210/ 16/ 17 1014.1F         2/ 4
SISTER BAY LKSHO 0759   69     190/ 12/ 15   N/A
CHAMBERS ISLAND  0800   69     160/  5/ 11 1013.5F
MENOMINEE LKSHOR 0800   71     190/  9/ 12 1014.0F
$$



USA.gov is the U.S. government's official web portal to all federal, state and local government web resources and services.